Time,TemperatureF,DewpointF,PressureIn,WindDirection,WindDirectionDegrees,WindSpeedMPH,WindSpeedGustMPH,Humidity,HourlyPrecipIn,Conditions,Clouds,dailyrainin,SoftwareType,DateUTC
2013-02-10 00:00:00,14.5,6.9,30.12,NNW,336,4.6,10.0,71,0.00,n/a,n/a,-99.99,Henriksen +1-Wire,2013-02-10 05:00:00,
2013-02-10 00:03:00,14.2,6.5,30.12,NNW,336,5.6,10.9,71,0.00,n/a,n/a,-99.99,Henriksen +1-Wire,2013-02-10 05:03:00,
2013-02-10 00:08:00,13.8,6.1,30.12,NNW,347,4.7,10.9,71,0.00,n/a,n/a,-99.99,Henriksen +1-Wire,2013-02-10 05:08:00,
2013-02-10 00:13:00,13.8,6.0,30.12,NNW,328,6.2,12.6,70,0.00,n/a,n/a,-99.99,Henriksen +1-Wire,2013-02-10 05:13:00,
2013-02-10 00:18:00,13.6,5.8,30.12,NNW,332,4.6,12.6,70,0.00,n/a,n/a,-99.99,Henriksen +1-Wire,2013-02-10 05:18:00,
2013-02-10 00:23:00,13.7,5.7,30.12,NNW,340,5.6,10.9,70,0.00,n/a,n/a,-99.99,Henriksen +1-Wire,2013-02-10 05:23:00,
2013-02-10 00:25:00,13.8,5.8,30.12,NNW,339,6.1,12.4,70,0.00,n/a,n/a,-99.99,Henriksen +1-Wire,2013-02-10 05:25:00,
2013-02-10 00:30:00,13.8,5.7,30.12,NNW,337,3.6,12.4,69,0.00,n/a,n/a,-99.99,Henriksen +1-Wire,2013-02-10 05:30:00,
2013-02-10 00:36:00,13.6,5.5,30.12,NNW,339,6.4,11.8,69,0.00,n/a,n/a,-99.99,Henriksen +1-Wire,2013-02-10 05:36:00,
2013-02-10 00:41:00,13.5,5.3,30.12,NNW,330,4.2,11.8,69,0.00,n/a,n/a,-99.99,Henriksen +1-Wire,2013-02-10 05:41:00,
2013-02-10 00:46:00,13.4,5.2,30.12,NNW,336,4.6,8.4,69,0.00,n/a,n/a,-99.99,Henriksen +1-Wire,2013-02-10 05:46:00,
2013-02-10 00:51:00,13.3,5.2,30.13,NNW,338,3.6,9.0,69,0.00,n/a,n/a,-99.99,Henriksen +1-Wire,2013-02-10 05:51:00,
2013-02-10 00:57:00,13.2,5.0,30.13,North,353,3.1,8.7,69,0.00,n/a,n/a,-99.99,Henriksen +1-Wire,2013-02-10 05:57:00,
2013-02-10 01:02:00,13.2,5.0,30.13,North,349,3.0,8.7,69,0.00,n/a,n/a,-99.99,Henriksen +1-Wire,2013-02-10 06:02:00,
2013-02-10 01:07:00,13.2,4.9,30.13,NNW,346,4.8,8.6,69,0.00,n/a,n/a,-99.99,Henriksen +1-Wire,2013-02-10 06:07:00,
2013-02-10 01:12:00,13.2,4.9,30.14,NNW,339,5.3,9.4,69,0.00,n/a,n/a,-99.99,Henriksen +1-Wire,2013-02-10 06:12:00,
2013-02-10 01:17:00,13.1,4.8,30.14,NNW,347,3.0,9.4,69,0.00,n/a,n/a,-99.99,Henriksen +1-Wire,2013-02-10 06:17:00,
2013-02-10 01:23:00,13.0,4.7,30.14,NNW,341,3.8,7.9,69,0.00,n/a,n/a,-99.99,Henriksen +1-Wire,2013-02-10 06:23:00,
2013-02-10 01:28:00,13.0,4.7,30.14,NNW,341,4.2,7.7,69,0.00,n/a,n/a,-99.99,Henriksen +1-Wire,2013-02-10 06:28:00,
2013-02-10 01:33:00,12.9,4.6,30.14,NNW,341,2.7,6.3,69,0.00,n/a,n/a,-99.99,Henriksen +1-Wire,2013-02-10 06:33:00,
2013-02-10 01:38:00,13.0,4.8,30.14,NNW,340,4.0,7.1,69,0.00,n/a,n/a,-99.99,Henriksen +1-Wire,2013-02-10 06:38:00,
2013-02-10 01:43:00,12.9,4.8,30.14,NNW,330,4.2,7.1,69,0.00,n/a,n/a,-99.99,Henriksen +1-Wire,2013-02-10 06:43:00,
2013-02-10 01:48:00,12.9,4.8,30.14,NNW,334,3.4,7.0,69,0.00,n/a,n/a,-99.99,Henriksen +1-Wire,2013-02-10 06:48:00,
2013-02-10 01:53:00,13.1,5.0,30.14,NNW,330,2.8,6.3,69,0.00,n/a,n/a,-99.99,Henriksen +1-Wire,2013-02-10 06:53:00,
2013-02-10 01:58:00,13.4,5.4,30.15,NNW,327,3.7,7.7,70,0.00,n/a,n/a,-99.99,Henriksen +1-Wire,2013-02-10 06:58:00,
2013-02-10 02:03:00,13.2,5.2,30.15,NNW,341,4.6,8.0,70,0.00,n/a,n/a,-99.99,Henriksen +1-Wire,2013-02-10 07:03:00,
2013-02-10 02:08:00,13.1,5.0,30.15,NNW,340,4.7,9.4,70,0.00,n/a,n/a,-99.99,Henriksen +1-Wire,2013-02-10 07:08:00,
2013-02-10 02:13:00,13.1,4.8,30.15,NNW,341,3.5,9.5,69,0.00,n/a,n/a,-99.99,Henriksen +1-Wire,2013-02-10 07:13:00,
2013-02-10 02:18:00,12.9,4.5,30.15,NNW,342,3.2,9.5,68,0.00,n/a,n/a,-99.99,Henriksen +1-Wire,2013-02-10 07:18:00,
2013-02-10 02:23:00,13.0,4.7,30.16,NNW,343,3.2,6.5,69,0.00,n/a,n/a,-99.99,Henriksen +1-Wire,2013-02-10 07:23:00,
2013-02-10 02:28:00,13.0,4.7,30.16,NNW,340,2.9,8.1,69,0.00,n/a,n/a,-99.99,Henriksen +1-Wire,2013-02-10 07:28:00,
2013-02-10 02:33:00,13.4,5.1,30.16,NNW,339,3.8,8.1,69,0.00,n/a,n/a,-99.99,Henriksen +1-Wire,2013-02-10 07:33:00,
2013-02-10 02:39:00,13.7,5.4,30.16,NNW,340,3.6,8.1,69,0.00,n/a,n/a,-99.99,Henriksen +1-Wire,2013-02-10 07:39:00,
2013-02-10 02:44:00,13.4,5.1,30.16,NNW,336,5.8,9.5,69,0.00,n/a,n/a,-99.99,Henriksen +1-Wire,2013-02-10 07:44:00,
2013-02-10 02:49:00,13.2,4.9,30.16,NNW,335,3.6,9.5,69,0.00,n/a,n/a,-99.99,Henriksen +1-Wire,2013-02-10 07:49:00,
2013-02-10 02:54:00,13.3,4.8,30.17,North,352,2.5,8.4,68,0.00,n/a,n/a,-99.99,Henriksen +1-Wire,2013-02-10 07:54:00,
2013-02-10 02:59:00,13.7,5.0,30.17,North,349,2.9,7.7,68,0.00,n/a,n/a,-99.99,Henriksen +1-Wire,2013-02-10 07:59:00,
2013-02-10 03:04:00,13.7,5.0,30.17,NNW,336,3.0,5.6,68,0.00,n/a,n/a,-99.99,Henriksen +1-Wire,2013-02-10 08:04:00,
2013-02-10 03:09:00,13.8,5.2,30.17,NNW,340,2.2,5.6,68,0.00,n/a,n/a,-99.99,Henriksen +1-Wire,2013-02-10 08:09:00,
2013-02-10 03:14:00,13.9,5.4,30.17,NNW,330,3.8,5.8,68,0.00,n/a,n/a,-99.99,Henriksen +1-Wire,2013-02-10 08:14:00,
2013-02-10 03:19:00,13.9,5.5,30.17,NNW,334,2.9,5.8,68,0.00,n/a,n/a,-99.99,Henriksen +1-Wire,2013-02-10 08:19:00,
2013-02-10 03:24:00,13.8,5.4,30.17,NNW,342,3.1,5.5,68,0.00,n/a,n/a,-99.99,Henriksen +1-Wire,2013-02-10 08:24:00,
2013-02-10 03:29:00,13.7,5.4,30.17,NNW,341,2.4,5.3,69,0.00,n/a,n/a,-99.99,Henriksen +1-Wire,2013-02-10 08:29:00,
2013-02-10 03:34:00,13.3,4.9,30.17,NNW,345,1.3,5.3,69,0.00,n/a,n/a,-99.99,Henriksen +1-Wire,2013-02-10 08:34:00,
2013-02-10 03:39:00,12.5,4.2,30.18,North,349,3.1,5.4,69,0.00,n/a,n/a,-99.99,Henriksen +1-Wire,2013-02-10 08:39:00,
2013-02-10 03:45:00,12.1,4.0,30.18,NNW,338,1.6,5.4,69,0.00,n/a,n/a,-99.99,Henriksen +1-Wire,2013-02-10 08:45:00,
2013-02-10 03:50:00,11.8,3.7,30.18,NNW,339,2.3,4.7,69,0.00,n/a,n/a,-99.99,Henriksen +1-Wire,2013-02-10 08:50:00,
2013-02-10 03:56:00,11.6,3.4,30.18,NNW,347,1.8,4.7,69,0.00,n/a,n/a,-99.99,Henriksen +1-Wire,2013-02-10 08:56:00,
2013-02-10 04:01:00,11.8,3.7,30.18,NNW,341,1.8,4.5,69,0.00,n/a,n/a,-99.99,Henriksen +1-Wire,2013-02-10 09:01:00,
2013-02-10 04:06:00,12.0,3.9,30.18,North,352,0.9,5.3,69,0.00,n/a,n/a,-99.99,Henriksen +1-Wire,2013-02-10 09:06:00,
2013-02-10 04:11:00,11.7,3.8,30.18,ENE,64,0.5,5.3,70,0.00,n/a,n/a,-99.99,Henriksen +1-Wire,2013-02-10 09:11:00,
2013-02-10 04:16:00,11.4,3.6,30.19,NE,45,1.6,4.0,70,0.00,n/a,n/a,-99.99,Henriksen +1-Wire,2013-02-10 09:16:00,
2013-02-10 04:21:00,10.7,3.1,30.19,East,96,0.0,4.0,71,0.00,n/a,n/a,-99.99,Henriksen +1-Wire,2013-02-10 09:21:00,
2013-02-10 04:26:00,10.2,2.8,30.19,East,80,0.0,1.6,71,0.00,n/a,n/a,-99.99,Henriksen +1-Wire,2013-02-10 09:26:00,
2013-02-10 04:32:00,10.2,3.5,30.19,North,358,1.9,3.2,73,0.00,n/a,n/a,-99.99,Henriksen +1-Wire,2013-02-10 09:32:00,
2013-02-10 04:38:00,10.4,4.0,30.19,North,349,1.7,4.0,75,0.00,n/a,n/a,-99.99,Henriksen +1-Wire,2013-02-10 09:38:00,
2013-02-10 04:44:00,11.1,4.6,30.20,NNW,344,1.6,3.3,74,0.00,n/a,n/a,-99.99,Henriksen +1-Wire,2013-02-10 09:44:00,
2013-02-10 04:49:00,11.5,4.7,30.20,North,350,1.4,3.2,74,0.00,n/a,n/a,-99.99,Henriksen +1-Wire,2013-02-10 09:49:00,
2013-02-10 04:54:00,11.3,4.4,30.20,North,7,1.8,3.2,73,0.00,n/a,n/a,-99.99,Henriksen +1-Wire,2013-02-10 09:54:00,
2013-02-10 04:59:00,11.6,4.7,30.20,North,354,1.2,4.1,73,0.00,n/a,n/a,-99.99,Henriksen +1-Wire,2013-02-10 09:59:00,
2013-02-10 05:04:00,11.5,4.7,30.21,North,357,1.8,5.1,74,0.00,n/a,n/a,-99.99,Henriksen +1-Wire,2013-02-10 10:04:00,
2013-02-10 05:10:00,11.5,4.7,30.21,North,349,3.6,7.2,73,0.00,n/a,n/a,-99.99,Henriksen +1-Wire,2013-02-10 10:10:00,
2013-02-10 05:16:00,11.4,4.0,30.21,NNW,342,3.4,7.2,71,0.00,n/a,n/a,-99.99,Henriksen +1-Wire,2013-02-10 10:16:00,
2013-02-10 05:22:00,11.6,3.6,30.22,NNW,347,3.1,5.6,70,0.00,n/a,n/a,-99.99,Henriksen +1-Wire,2013-02-10 10:22:00,
2013-02-10 05:27:00,11.4,3.1,30.22,NNW,339,2.1,5.1,69,0.00,n/a,n/a,-99.99,Henriksen +1-Wire,2013-02-10 10:27:00,
2013-02-10 05:32:00,11.4,3.0,30.23,NNW,332,3.0,4.0,68,0.00,n/a,n/a,-99.99,Henriksen +1-Wire,2013-02-10 10:32:00,
2013-02-10 05:37:00,11.6,3.1,30.23,NNW,344,2.4,4.0,68,0.00,n/a,n/a,-99.99,Henriksen +1-Wire,2013-02-10 10:37:00,
2013-02-10 05:42:00,11.9,3.3,30.23,NNW,337,1.9,4.3,68,0.00,n/a,n/a,-99.99,Henriksen +1-Wire,2013-02-10 10:42:00,
2013-02-10 05:47:00,11.9,3.4,30.23,NNW,343,0.9,4.4,68,0.00,n/a,n/a,-99.99,Henriksen +1-Wire,2013-02-10 10:47:00,
2013-02-10 05:52:00,11.3,2.9,30.23,NNE,24,0.0,4.4,68,0.00,n/a,n/a,-99.99,Henriksen +1-Wire,2013-02-10 10:52:00,
2013-02-10 05:57:00,10.6,2.4,30.23,NNE,22,0.9,2.4,69,0.00,n/a,n/a,-99.99,Henriksen +1-Wire,2013-02-10 10:57:00,
2013-02-10 06:02:00,10.3,2.5,30.23,NNE,15,0.0,2.4,70,0.00,n/a,n/a,-99.99,Henriksen +1-Wire,2013-02-10 11:02:00,
2013-02-10 06:08:00,9.8,2.5,30.24,North,11,0.0,0.0,72,0.00,n/a,n/a,-99.99,Henriksen +1-Wire,2013-02-10 11:08:00,
2013-02-10 06:13:00,10.0,3.1,30.24,NNE,27,0.0,0.0,73,0.00,n/a,n/a,-99.99,Henriksen +1-Wire,2013-02-10 11:13:00,
2013-02-10 06:19:00,10.2,3.7,30.25,NNE,18,1.9,3.3,74,0.00,n/a,n/a,-99.99,Henriksen +1-Wire,2013-02-10 11:19:00,
2013-02-10 06:25:00,10.1,3.9,30.25,NNW,330,2.6,4.0,75,0.00,n/a,n/a,-99.99,Henriksen +1-Wire,2013-02-10 11:25:00,
2013-02-10 06:30:00,10.4,3.9,30.26,NNW,336,3.0,6.4,74,0.00,n/a,n/a,-99.99,Henriksen +1-Wire,2013-02-10 11:30:00,
2013-02-10 06:36:00,11.2,3.7,30.26,NNW,332,3.7,6.4,71,0.00,n/a,n/a,-99.99,Henriksen +1-Wire,2013-02-10 11:36:00,
2013-02-10 06:41:00,11.6,3.3,30.26,NW,317,1.9,5.5,68,0.00,n/a,n/a,-99.99,Henriksen +1-Wire,2013-02-10 11:41:00,
2013-02-10 06:46:00,11.9,3.1,30.26,NNW,331,2.4,5.3,67,0.00,n/a,n/a,-99.99,Henriksen +1-Wire,2013-02-10 11:46:00,
2013-02-10 06:52:00,12.0,2.6,30.26,North,357,1.7,3.9,65,0.00,n/a,n/a,-99.99,Henriksen +1-Wire,2013-02-10 11:52:00,
2013-02-10 06:57:00,12.0,2.4,30.26,NNW,347,1.8,3.9,65,0.00,n/a,n/a,-99.99,Henriksen +1-Wire,2013-02-10 11:57:00,
2013-02-10 07:02:00,12.0,2.4,30.26,NW,324,1.8,4.0,65,0.00,n/a,n/a,-99.99,Henriksen +1-Wire,2013-02-10 12:02:00,
2013-02-10 07:07:00,11.8,2.2,30.27,NNW,335,1.0,4.0,65,0.00,n/a,n/a,-99.99,Henriksen +1-Wire,2013-02-10 12:07:00,
2013-02-10 07:12:00,11.1,1.8,30.27,NW,321,1.1,3.2,65,0.00,n/a,n/a,-99.99,Henriksen +1-Wire,2013-02-10 12:12:00,
2013-02-10 07:17:00,10.7,1.8,30.27,NNW,328,0.9,2.9,66,0.00,n/a,n/a,-99.99,Henriksen +1-Wire,2013-02-10 12:17:00,
2013-02-10 07:22:00,11.1,2.2,30.28,NNW,336,1.8,3.2,67,0.00,n/a,n/a,-99.99,Henriksen +1-Wire,2013-02-10 12:22:00,
2013-02-10 07:27:00,11.4,2.5,30.28,NNW,328,0.8,3.2,67,0.00,n/a,n/a,-99.99,Henriksen +1-Wire,2013-02-10 12:27:00,
2013-02-10 07:32:00,11.7,2.6,30.29,NNW,344,0.9,3.3,66,0.00,n/a,n/a,-99.99,Henriksen +1-Wire,2013-02-10 12:32:00,
2013-02-10 07:37:00,11.8,2.5,30.29,NNW,331,2.1,3.9,66,0.00,n/a,n/a,-99.99,Henriksen +1-Wire,2013-02-10 12:37:00,
2013-02-10 07:42:00,11.8,2.3,30.29,NW,320,2.5,4.6,65,0.00,n/a,n/a,-99.99,Henriksen +1-Wire,2013-02-10 12:42:00,
2013-02-10 07:47:00,12.4,2.6,30.29,NNW,331,2.6,7.9,64,0.00,n/a,n/a,-99.99,Henriksen +1-Wire,2013-02-10 12:47:00,
2013-02-10 07:53:00,12.9,2.5,30.29,NNW,348,1.1,7.9,62,0.00,n/a,n/a,-99.99,Henriksen +1-Wire,2013-02-10 12:53:00,
2013-02-10 07:58:00,13.3,2.5,30.30,North,351,1.8,5.0,61,0.00,n/a,n/a,-99.99,Henriksen +1-Wire,2013-02-10 12:58:00,
2013-02-10 08:03:00,13.2,2.1,30.30,NW,321,1.8,5.0,61,0.00,n/a,n/a,-99.99,Henriksen +1-Wire,2013-02-10 13:03:00,
2013-02-10 08:08:00,13.6,2.3,30.30,NW,322,0.6,3.9,60,0.00,n/a,n/a,-99.99,Henriksen +1-Wire,2013-02-10 13:08:00,
2013-02-10 08:13:00,14.2,2.8,30.30,NNW,334,2.3,4.7,60,0.00,n/a,n/a,-99.99,Henriksen +1-Wire,2013-02-10 13:13:00,
2013-02-10 08:18:00,14.9,2.9,30.30,NNW,338,0.6,4.7,58,0.00,n/a,n/a,-99.99,Henriksen +1-Wire,2013-02-10 13:18:00,
2013-02-10 08:23:00,16.0,3.5,30.30,NNE,31,0.5,4.7,57,0.00,n/a,n/a,-99.99,Henriksen +1-Wire,2013-02-10 13:23:00,
2013-02-10 08:28:00,17.3,4.2,30.30,North,356,2.5,5.0,56,0.00,n/a,n/a,-99.99,Henriksen +1-Wire,2013-02-10 13:28:00,
2013-02-10 08:34:00,18.2,4.5,30.31,NW,315,2.3,5.0,54,0.00,n/a,n/a,-99.99,Henriksen +1-Wire,2013-02-10 13:34:00,
2013-02-10 08:39:00,18.6,4.4,30.31,NW,321,3.7,4.9,53,0.00,n/a,n/a,-99.99,Henriksen +1-Wire,2013-02-10 13:39:00,
2013-02-10 08:45:00,18.6,3.8,30.32,NW,318,1.8,4.9,52,0.00,n/a,n/a,-99.99,Henriksen +1-Wire,2013-02-10 13:45:00,
2013-02-10 08:50:00,18.7,3.3,30.32,NW,314,2.0,5.6,50,0.00,n/a,n/a,-99.99,Henriksen +1-Wire,2013-02-10 13:50:00,
2013-02-10 08:56:00,18.9,3.2,30.32,NNW,331,2.8,5.6,50,0.00,n/a,n/a,-99.99,Henriksen +1-Wire,2013-02-10 13:56:00,
2013-02-10 09:01:00,19.7,3.8,30.32,NNW,337,2.5,5.8,49,0.00,n/a,n/a,-99.99,Henriksen +1-Wire,2013-02-10 14:01:00,
2013-02-10 09:06:00,20.4,4.4,30.32,WNW,300,1.4,5.8,49,0.00,n/a,n/a,-99.99,Henriksen +1-Wire,2013-02-10 14:06:00,
2013-02-10 09:12:00,20.9,5.0,30.32,SW,225,0.1,4.3,49,0.00,n/a,n/a,-99.99,Henriksen +1-Wire,2013-02-10 14:12:00,
2013-02-10 09:17:00,21.6,5.3,30.32,NW,320,2.0,4.3,49,0.00,n/a,n/a,-99.99,Henriksen +1-Wire,2013-02-10 14:17:00,
2013-02-10 09:22:00,21.2,4.6,30.32,North,355,1.4,4.0,48,0.00,n/a,n/a,-99.99,Henriksen +1-Wire,2013-02-10 14:22:00,
2013-02-10 09:27:00,21.4,4.3,30.32,North,360,0.2,4.0,47,0.00,n/a,n/a,-99.99,Henriksen +1-Wire,2013-02-10 14:27:00,
2013-02-10 09:32:00,22.0,4.7,30.32,NW,307,1.8,3.2,47,0.00,n/a,n/a,-99.99,Henriksen +1-Wire,2013-02-10 14:32:00,
2013-02-10 09:37:00,22.4,5.1,30.32,NW,312,1.2,3.3,47,0.00,n/a,n/a,-99.99,Henriksen +1-Wire,2013-02-10 14:37:00,
2013-02-10 09:42:00,22.1,4.9,30.32,NW,315,1.8,4.4,47,0.00,n/a,n/a,-99.99,Henriksen +1-Wire,2013-02-10 14:42:00,
2013-02-10 09:47:00,21.3,4.7,30.32,WNW,283,1.4,4.4,48,0.00,n/a,n/a,-99.99,Henriksen +1-Wire,2013-02-10 14:47:00,
2013-02-10 09:52:00,21.3,5.1,30.33,WNW,286,2.4,5.4,49,0.00,n/a,n/a,-99.99,Henriksen +1-Wire,2013-02-10 14:52:00,
2013-02-10 09:58:00,21.4,5.2,30.33,WNW,293,3.4,6.3,49,0.00,n/a,n/a,-99.99,Henriksen +1-Wire,2013-02-10 14:58:00,
2013-02-10 10:03:00,21.2,5.0,30.33,NW,320,4.4,8.1,49,0.00,n/a,n/a,-99.99,Henriksen +1-Wire,2013-02-10 15:03:00,
2013-02-10 10:08:00,21.0,4.3,30.33,NW,326,2.2,8.1,48,0.00,n/a,n/a,-99.99,Henriksen +1-Wire,2013-02-10 15:08:00,
2013-02-10 10:13:00,21.7,4.5,30.34,NNW,335,3.5,6.3,47,0.00,n/a,n/a,-99.99,Henriksen +1-Wire,2013-02-10 15:13:00,
2013-02-10 10:18:00,22.2,4.9,30.34,NW,321,2.2,6.3,47,0.00,n/a,n/a,-99.99,Henriksen +1-Wire,2013-02-10 15:18:00,
2013-02-10 10:23:00,22.5,5.2,30.34,NW,315,1.9,4.7,47,0.00,n/a,n/a,-99.99,Henriksen +1-Wire,2013-02-10 15:23:00,
2013-02-10 10:28:00,22.3,4.9,30.33,NW,319,1.7,4.0,46,0.00,n/a,n/a,-99.99,Henriksen +1-Wire,2013-02-10 15:28:00,
2013-02-10 10:33:00,22.9,5.2,30.33,NNW,327,1.9,4.6,46,0.00,n/a,n/a,-99.99,Henriksen +1-Wire,2013-02-10 15:33:00,
2013-02-10 10:38:00,23.6,5.8,30.33,NNW,345,1.2,5.5,46,0.00,n/a,n/a,-99.99,Henriksen +1-Wire,2013-02-10 15:38:00,
2013-02-10 10:43:00,23.7,5.8,30.33,WNW,298,1.2,5.5,46,0.00,n/a,n/a,-99.99,Henriksen +1-Wire,2013-02-10 15:43:00,
2013-02-10 10:48:00,23.8,5.6,30.33,NW,324,2.9,4.7,45,0.00,n/a,n/a,-99.99,Henriksen +1-Wire,2013-02-10 15:48:00,
2013-02-10 10:53:00,23.9,5.3,30.33,NW,322,1.5,4.7,44,0.00,n/a,n/a,-99.99,Henriksen +1-Wire,2013-02-10 15:53:00,
2013-02-10 10:58:00,24.7,5.9,30.33,NW,321,2.5,4.5,44,0.00,n/a,n/a,-99.99,Henriksen +1-Wire,2013-02-10 15:58:00,
2013-02-10 11:03:00,25.3,6.4,30.33,WNW,288,1.9,5.6,44,0.00,n/a,n/a,-99.99,Henriksen +1-Wire,2013-02-10 16:03:00,
2013-02-10 11:08:00,25.5,6.4,30.33,NW,315,1.9,5.6,43,0.00,n/a,n/a,-99.99,Henriksen +1-Wire,2013-02-10 16:08:00,
2013-02-10 11:13:00,26.5,6.9,30.33,NNW,336,2.2,5.5,43,0.00,n/a,n/a,-99.99,Henriksen +1-Wire,2013-02-10 16:13:00,
2013-02-10 11:19:00,27.4,7.4,30.33,NW,325,2.5,4.8,42,0.00,n/a,n/a,-99.99,Henriksen +1-Wire,2013-02-10 16:19:00,
2013-02-10 11:24:00,27.3,7.2,30.33,NNW,337,2.2,4.7,42,0.00,n/a,n/a,-99.99,Henriksen +1-Wire,2013-02-10 16:24:00,
2013-02-10 11:29:00,27.4,7.1,30.33,NW,326,1.1,6.6,41,0.00,n/a,n/a,-99.99,Henriksen +1-Wire,2013-02-10 16:29:00,
2013-02-10 11:34:00,28.1,7.3,30.33,NW,317,2.9,6.6,41,0.00,n/a,n/a,-99.99,Henriksen +1-Wire,2013-02-10 16:34:00,
2013-02-10 11:40:00,28.7,7.4,30.33,NNW,332,3.1,7.1,40,0.00,n/a,n/a,-99.99,Henriksen +1-Wire,2013-02-10 16:40:00,
2013-02-10 11:45:00,29.3,7.8,30.33,NNW,328,3.0,7.1,40,0.00,n/a,n/a,-99.99,Henriksen +1-Wire,2013-02-10 16:45:00,
2013-02-10 11:50:00,29.5,7.9,30.32,NNW,340,1.9,5.6,39,0.00,n/a,n/a,-99.99,Henriksen +1-Wire,2013-02-10 16:50:00,
2013-02-10 11:55:00,29.6,8.3,30.32,NW,312,1.7,4.8,40,0.00,n/a,n/a,-99.99,Henriksen +1-Wire,2013-02-10 16:55:00,
2013-02-10 12:00:00,29.4,8.1,30.32,NW,312,2.6,5.5,40,0.00,n/a,n/a,-99.99,Henriksen +1-Wire,2013-02-10 17:00:00,
2013-02-10 12:06:00,29.3,7.5,30.32,NW,310,1.2,5.5,39,0.00,n/a,n/a,-99.99,Henriksen +1-Wire,2013-02-10 17:06:00,
2013-02-10 12:11:00,29.8,7.6,30.32,NW,308,2.1,4.7,38,0.00,n/a,n/a,-99.99,Henriksen +1-Wire,2013-02-10 17:11:00,
2013-02-10 12:16:00,30.5,7.7,30.32,NW,311,1.3,7.1,38,0.00,n/a,n/a,-99.99,Henriksen +1-Wire,2013-02-10 17:16:00,
2013-02-10 12:21:00,31.1,8.4,30.32,NW,304,3.2,7.1,38,0.00,n/a,n/a,-99.99,Henriksen +1-Wire,2013-02-10 17:21:00,
2013-02-10 12:26:00,31.5,8.8,30.32,NW,311,2.0,5.7,38,0.00,n/a,n/a,-99.99,Henriksen +1-Wire,2013-02-10 17:26:00,
2013-02-10 12:31:00,31.5,8.4,30.32,NW,308,1.6,5.7,37,0.00,n/a,n/a,-99.99,Henriksen +1-Wire,2013-02-10 17:31:00,
2013-02-10 12:36:00,31.3,7.9,30.32,NW,320,4.1,8.7,37,0.00,n/a,n/a,-99.99,Henriksen +1-Wire,2013-02-10 17:36:00,
2013-02-10 12:41:00,31.2,7.5,30.32,North,353,3.2,9.4,36,0.00,n/a,n/a,-99.99,Henriksen +1-Wire,2013-02-10 17:41:00,
2013-02-10 12:46:00,31.2,7.4,30.31,NW,313,3.6,9.4,36,0.00,n/a,n/a,-99.99,Henriksen +1-Wire,2013-02-10 17:46:00,
2013-02-10 12:51:00,31.2,7.3,30.31,NW,316,2.2,7.2,36,0.00,n/a,n/a,-99.99,Henriksen +1-Wire,2013-02-10 17:51:00,
2013-02-10 12:56:00,31.2,7.9,30.31,NNW,330,2.7,6.7,37,0.00,n/a,n/a,-99.99,Henriksen +1-Wire,2013-02-10 17:56:00,
2013-02-10 13:01:00,30.7,10.0,30.31,North,357,1.9,7.2,41,0.00,n/a,n/a,-99.99,Henriksen +1-Wire,2013-02-10 18:01:00,
2013-02-10 13:06:00,30.6,12.8,30.31,NW,320,2.6,7.2,47,0.00,n/a,n/a,-99.99,Henriksen +1-Wire,2013-02-10 18:06:00,
2013-02-10 13:12:00,31.1,13.7,30.31,NW,317,3.3,7.9,48,0.00,n/a,n/a,-99.99,Henriksen +1-Wire,2013-02-10 18:12:00,
2013-02-10 13:17:00,31.0,13.7,30.31,NW,323,2.3,7.9,48,0.00,n/a,n/a,-99.99,Henriksen +1-Wire,2013-02-10 18:17:00,
2013-02-10 13:22:00,31.1,13.7,30.31,NW,321,1.7,4.8,48,0.00,n/a,n/a,-99.99,Henriksen +1-Wire,2013-02-10 18:22:00,
2013-02-10 13:27:00,31.1,13.8,30.30,NW,323,4.0,7.2,48,0.00,n/a,n/a,-99.99,Henriksen +1-Wire,2013-02-10 18:27:00,
2013-02-10 13:33:00,31.2,13.2,30.30,NW,313,3.1,7.2,47,0.00,n/a,n/a,-99.99,Henriksen +1-Wire,2013-02-10 18:33:00,
2013-02-10 13:38:00,31.3,12.6,30.30,NW,320,2.6,5.6,45,0.00,n/a,n/a,-99.99,Henriksen +1-Wire,2013-02-10 18:38:00,
2013-02-10 13:43:00,31.4,12.0,30.29,NW,319,0.5,4.7,44,0.00,n/a,n/a,-99.99,Henriksen +1-Wire,2013-02-10 18:43:00,
2013-02-10 13:48:00,31.7,11.6,30.29,NNW,328,4.0,5.5,42,0.00,n/a,n/a,-99.99,Henriksen +1-Wire,2013-02-10 18:48:00,
2013-02-10 13:53:00,32.0,11.7,30.29,NW,322,3.2,6.4,42,0.00,n/a,n/a,-99.99,Henriksen +1-Wire,2013-02-10 18:53:00,
2013-02-10 13:58:00,32.2,11.4,30.29,NNW,339,2.1,6.4,41,0.00,n/a,n/a,-99.99,Henriksen +1-Wire,2013-02-10 18:58:00,
2013-02-10 14:03:00,32.6,11.3,30.28,NNW,337,2.6,5.5,40,0.00,n/a,n/a,-99.99,Henriksen +1-Wire,2013-02-10 19:03:00,
2013-02-10 14:08:00,32.9,11.2,30.28,North,5,1.2,4.6,40,0.00,n/a,n/a,-99.99,Henriksen +1-Wire,2013-02-10 19:08:00,
2013-02-10 14:13:00,33.3,11.3,30.28,WNW,302,0.0,4.0,39,0.00,n/a,n/a,-99.99,Henriksen +1-Wire,2013-02-10 19:13:00,
2013-02-10 14:18:00,33.6,11.4,30.28,North,2,1.4,3.5,39,0.00,n/a,n/a,-99.99,Henriksen +1-Wire,2013-02-10 19:18:00,
2013-02-10 14:23:00,33.9,11.3,30.28,North,5,2.9,5.5,38,0.00,n/a,n/a,-99.99,Henriksen +1-Wire,2013-02-10 19:23:00,
2013-02-10 14:28:00,34.0,10.7,30.28,NNW,347,2.8,5.6,37,0.00,n/a,n/a,-99.99,Henriksen +1-Wire,2013-02-10 19:28:00,
2013-02-10 14:33:00,34.2,10.5,30.28,NNW,339,2.6,5.6,37,0.00,n/a,n/a,-99.99,Henriksen +1-Wire,2013-02-10 19:33:00,
2013-02-10 14:38:00,34.4,10.8,30.28,NNW,335,0.7,4.8,37,0.00,n/a,n/a,-99.99,Henriksen +1-Wire,2013-02-10 19:38:00,
2013-02-10 14:43:00,34.7,11.3,30.28,NNW,331,1.5,4.8,37,0.00,n/a,n/a,-99.99,Henriksen +1-Wire,2013-02-10 19:43:00,
2013-02-10 14:48:00,35.0,11.6,30.28,NNW,329,2.2,5.5,37,0.00,n/a,n/a,-99.99,Henriksen +1-Wire,2013-02-10 19:48:00,
2013-02-10 14:54:00,35.3,10.9,30.28,North,0,1.0,6.3,36,0.00,n/a,n/a,-99.99,Henriksen +1-Wire,2013-02-10 19:54:00,
2013-02-10 14:59:00,35.4,10.5,30.28,NNW,335,0.7,7.0,35,0.00,n/a,n/a,-99.99,Henriksen +1-Wire,2013-02-10 19:59:00,
2013-02-10 15:04:00,35.6,10.7,30.29,North,355,0.5,7.0,35,0.00,n/a,n/a,-99.99,Henriksen +1-Wire,2013-02-10 20:04:00,
2013-02-10 15:09:00,35.9,11.1,30.29,NW,321,1.1,5.1,35,0.00,n/a,n/a,-99.99,Henriksen +1-Wire,2013-02-10 20:09:00,
2013-02-10 15:14:00,36.0,11.0,30.28,NW,314,2.0,4.6,35,0.00,n/a,n/a,-99.99,Henriksen +1-Wire,2013-02-10 20:14:00,
2013-02-10 15:20:00,35.8,10.4,30.29,NW,304,1.2,6.3,34,0.00,n/a,n/a,-99.99,Henriksen +1-Wire,2013-02-10 20:20:00,
2013-02-10 15:26:00,35.8,9.7,30.29,WNW,300,1.3,5.4,33,0.00,n/a,n/a,-99.99,Henriksen +1-Wire,2013-02-10 20:26:00,
2013-02-10 15:32:00,35.8,9.3,30.29,NW,325,2.8,5.5,32,0.00,n/a,n/a,-99.99,Henriksen +1-Wire,2013-02-10 20:32:00,
2013-02-10 15:37:00,35.6,8.8,30.29,NW,319,2.4,5.5,32,0.00,n/a,n/a,-99.99,Henriksen +1-Wire,2013-02-10 20:37:00,
2013-02-10 15:42:00,35.4,8.3,30.29,NW,308,2.7,5.1,32,0.00,n/a,n/a,-99.99,Henriksen +1-Wire,2013-02-10 20:42:00,
2013-02-10 15:47:00,35.3,8.1,30.29,NW,318,1.5,4.7,31,0.00,n/a,n/a,-99.99,Henriksen +1-Wire,2013-02-10 20:47:00,
2013-02-10 15:53:00,35.0,7.8,30.30,WNW,291,1.7,4.7,31,0.00,n/a,n/a,-99.99,Henriksen +1-Wire,2013-02-10 20:53:00,
2013-02-10 15:59:00,34.8,8.1,30.30,NW,305,2.1,5.0,32,0.00,n/a,n/a,-99.99,Henriksen +1-Wire,2013-02-10 20:59:00,
2013-02-10 16:04:00,34.5,8.7,30.30,WNW,301,1.3,5.0,33,0.00,n/a,n/a,-99.99,Henriksen +1-Wire,2013-02-10 21:04:00,
2013-02-10 16:09:00,34.2,9.8,30.30,WNW,297,1.8,4.7,35,0.00,n/a,n/a,-99.99,Henriksen +1-Wire,2013-02-10 21:09:00,
2013-02-10 16:14:00,33.9,10.2,30.30,NW,312,2.0,4.7,37,0.00,n/a,n/a,-99.99,Henriksen +1-Wire,2013-02-10 21:14:00,
2013-02-10 16:19:00,33.6,10.5,30.30,WNW,299,0.9,4.0,38,0.00,n/a,n/a,-99.99,Henriksen +1-Wire,2013-02-10 21:19:00,
2013-02-10 16:24:00,33.4,10.6,30.30,WNW,302,0.4,3.9,38,0.00,n/a,n/a,-99.99,Henriksen +1-Wire,2013-02-10 21:24:00,
2013-02-10 16:30:00,33.0,10.7,30.31,NW,304,1.4,4.7,39,0.00,n/a,n/a,-99.99,Henriksen +1-Wire,2013-02-10 21:30:00,
2013-02-10 16:36:00,32.7,10.9,30.31,WNW,302,0.6,4.7,40,0.00,n/a,n/a,-99.99,Henriksen +1-Wire,2013-02-10 21:36:00,
2013-02-10 16:41:00,32.3,10.6,30.31,WSW,240,0.0,4.2,40,0.00,n/a,n/a,-99.99,Henriksen +1-Wire,2013-02-10 21:41:00,
2013-02-10 16:46:00,32.0,10.2,30.31,WSW,257,0.0,0.5,39,0.00,n/a,n/a,-99.99,Henriksen +1-Wire,2013-02-10 21:46:00,
2013-02-10 16:51:00,31.7,9.9,30.30,WSW,247,0.0,0.0,39,0.00,n/a,n/a,-99.99,Henriksen +1-Wire,2013-02-10 21:51:00,
2013-02-10 16:57:00,31.5,9.9,30.31,WSW,258,0.0,0.0,40,0.00,n/a,n/a,-99.99,Henriksen +1-Wire,2013-02-10 21:57:00,
2013-02-10 17:02:00,31.3,10.0,30.31,NW,305,0.2,2.3,40,0.00,n/a,n/a,-99.99,Henriksen +1-Wire,2013-02-10 22:02:00,
2013-02-10 17:08:00,31.8,10.7,30.31,WNW,302,0.2,2.3,41,0.00,n/a,n/a,-99.99,Henriksen +1-Wire,2013-02-10 22:08:00,
2013-02-10 17:13:00,31.8,11.0,30.31,West,266,0.0,1.6,41,0.00,n/a,n/a,-99.99,Henriksen +1-Wire,2013-02-10 22:13:00,
2013-02-10 17:18:00,31.8,11.2,30.31,WNW,284,0.0,0.0,42,0.00,n/a,n/a,-99.99,Henriksen +1-Wire,2013-02-10 22:18:00,
2013-02-10 17:23:00,31.0,11.0,30.30,NW,311,0.0,0.0,43,0.00,n/a,n/a,-99.99,Henriksen +1-Wire,2013-02-10 22:23:00,
2013-02-10 17:28:00,30.4,10.8,30.30,WNW,300,0.0,0.0,43,0.00,n/a,n/a,-99.99,Henriksen +1-Wire,2013-02-10 22:28:00,
2013-02-10 17:33:00,30.0,10.6,30.30,West,266,0.0,0.0,43,0.00,n/a,n/a,-99.99,Henriksen +1-Wire,2013-02-10 22:33:00,
2013-02-10 17:38:00,29.8,10.6,30.30,West,268,0.0,0.0,44,0.00,n/a,n/a,-99.99,Henriksen +1-Wire,2013-02-10 22:38:00,
2013-02-10 17:43:00,30.0,11.2,30.31,West,266,0.0,0.0,45,0.00,n/a,n/a,-99.99,Henriksen +1-Wire,2013-02-10 22:43:00,
2013-02-10 17:48:00,30.0,11.5,30.31,West,261,0.0,0.0,45,0.00,n/a,n/a,-99.99,Henriksen +1-Wire,2013-02-10 22:48:00,
2013-02-10 17:53:00,30.0,11.0,30.31,SW,221,0.0,0.0,44,0.00,n/a,n/a,-99.99,Henriksen +1-Wire,2013-02-10 22:53:00,
2013-02-10 17:58:00,29.2,10.1,30.32,SW,223,0.0,0.0,44,0.00,n/a,n/a,-99.99,Henriksen +1-Wire,2013-02-10 22:58:00,
2013-02-10 18:04:00,28.3,9.7,30.32,WSW,238,0.0,0.0,45,0.00,n/a,n/a,-99.99,Henriksen +1-Wire,2013-02-10 23:04:00,
2013-02-10 18:10:00,28.4,10.4,30.32,SSW,210,0.0,0.0,46,0.00,n/a,n/a,-99.99,Henriksen +1-Wire,2013-02-10 23:10:00,
2013-02-10 18:16:00,28.3,10.8,30.32,South,178,0.0,0.0,47,0.00,n/a,n/a,-99.99,Henriksen +1-Wire,2013-02-10 23:16:00,
2013-02-10 18:22:00,28.2,11.3,30.32,SW,219,0.0,0.0,48,0.00,n/a,n/a,-99.99,Henriksen +1-Wire,2013-02-10 23:22:00,
2013-02-10 18:27:00,28.1,11.7,30.32,SW,220,0.0,0.0,49,0.00,n/a,n/a,-99.99,Henriksen +1-Wire,2013-02-10 23:27:00,
2013-02-10 18:32:00,27.4,11.1,30.31,NNE,25,0.0,0.0,50,0.00,n/a,n/a,-99.99,Henriksen +1-Wire,2013-02-10 23:32:00,
2013-02-10 18:37:00,27.2,11.0,30.31,NNE,19,0.0,0.0,50,0.00,n/a,n/a,-99.99,Henriksen +1-Wire,2013-02-10 23:37:00,
2013-02-10 18:42:00,27.1,10.8,30.31,WSW,244,0.0,0.0,49,0.00,n/a,n/a,-99.99,Henriksen +1-Wire,2013-02-10 23:42:00,
2013-02-10 18:47:00,27.0,10.2,30.31,West,278,0.0,0.0,49,0.00,n/a,n/a,-99.99,Henriksen +1-Wire,2013-02-10 23:47:00,
2013-02-10 18:52:00,26.8,9.7,30.31,WNW,287,0.0,0.0,48,0.00,n/a,n/a,-99.99,Henriksen +1-Wire,2013-02-10 23:52:00,
2013-02-10 18:57:00,26.0,9.1,30.31,SSE,151,0.0,0.0,48,0.00,n/a,n/a,-99.99,Henriksen +1-Wire,2013-02-10 23:57:00,
2013-02-10 19:02:00,25.3,8.5,30.31,SE,128,0.0,0.0,48,0.00,n/a,n/a,-99.99,Henriksen +1-Wire,2013-02-11 00:02:00,
2013-02-10 19:08:00,24.7,8.1,30.31,SE,133,0.0,0.0,49,0.00,n/a,n/a,-99.99,Henriksen +1-Wire,2013-02-11 00:08:00,
2013-02-10 19:13:00,24.5,8.0,30.31,NE,53,0.0,0.0,49,0.00,n/a,n/a,-99.99,Henriksen +1-Wire,2013-02-11 00:13:00,
2013-02-10 19:18:00,24.2,7.9,30.31,NNE,31,0.0,0.4,49,0.00,n/a,n/a,-99.99,Henriksen +1-Wire,2013-02-11 00:18:00,
2013-02-10 19:23:00,24.2,8.1,30.31,NW,310,0.0,0.4,50,0.00,n/a,n/a,-99.99,Henriksen +1-Wire,2013-02-11 00:23:00,
2013-02-10 19:28:00,24.1,8.3,30.31,NW,310,0.0,0.0,50,0.00,n/a,n/a,-99.99,Henriksen +1-Wire,2013-02-11 00:28:00,
2013-02-10 19:33:00,23.9,9.2,30.31,South,174,0.0,0.0,53,0.00,n/a,n/a,-99.99,Henriksen +1-Wire,2013-02-11 00:33:00,
2013-02-10 19:38:00,24.0,10.2,30.31,South,184,0.0,0.0,55,0.00,n/a,n/a,-99.99,Henriksen +1-Wire,2013-02-11 00:38:00,
2013-02-10 19:43:00,24.3,12.1,30.31,SSW,200,0.0,0.0,59,0.00,n/a,n/a,-99.99,Henriksen +1-Wire,2013-02-11 00:43:00,
2013-02-10 19:48:00,24.4,13.4,30.31,SSW,201,0.0,0.0,62,0.00,n/a,n/a,-99.99,Henriksen +1-Wire,2013-02-11 00:48:00,
2013-02-10 19:53:00,24.4,14.4,30.32,SW,220,0.0,0.0,65,0.00,n/a,n/a,-99.99,Henriksen +1-Wire,2013-02-11 00:53:00,
2013-02-10 19:58:00,24.6,15.3,30.32,SW,234,0.0,0.0,67,0.00,n/a,n/a,-99.99,Henriksen +1-Wire,2013-02-11 00:58:00,
2013-02-10 20:04:00,24.5,15.9,30.32,WSW,240,0.0,0.0,69,0.00,n/a,n/a,-99.99,Henriksen +1-Wire,2013-02-11 01:04:00,
2013-02-10 20:09:00,24.5,16.4,30.32,West,260,0.0,0.0,70,0.00,n/a,n/a,-99.99,Henriksen +1-Wire,2013-02-11 01:09:00,
2013-02-10 20:15:00,24.3,16.5,30.32,NNW,346,0.0,0.0,72,0.00,n/a,n/a,-99.99,Henriksen +1-Wire,2013-02-11 01:15:00,
2013-02-10 20:20:00,23.5,16.2,30.32,NNW,346,0.0,0.0,73,0.00,n/a,n/a,-99.99,Henriksen +1-Wire,2013-02-11 01:20:00,
2013-02-10 20:26:00,23.1,16.3,30.32,NW,323,0.0,0.0,75,0.00,n/a,n/a,-99.99,Henriksen +1-Wire,2013-02-11 01:26:00,
2013-02-10 20:31:00,23.2,16.7,30.32,North,352,0.0,0.0,75,0.00,n/a,n/a,-99.99,Henriksen +1-Wire,2013-02-11 01:31:00,
2013-02-10 20:36:00,23.2,17.3,30.31,NNW,346,0.0,0.0,78,0.00,n/a,n/a,-99.99,Henriksen +1-Wire,2013-02-11 01:36:00,
2013-02-10 20:41:00,23.1,17.8,30.31,NNW,334,0.0,0.0,79,0.00,n/a,n/a,-99.99,Henriksen +1-Wire,2013-02-11 01:41:00,
2013-02-10 20:46:00,23.1,18.5,30.31,North,350,0.0,0.0,82,0.00,n/a,n/a,-99.99,Henriksen +1-Wire,2013-02-11 01:46:00,
2013-02-10 20:52:00,22.3,18.5,30.31,NNW,347,0.0,0.0,85,0.00,n/a,n/a,-99.99,Henriksen +1-Wire,2013-02-11 01:52:00,
2013-02-10 20:57:00,21.6,18.3,30.31,North,357,0.0,0.0,86,0.00,n/a,n/a,-99.99,Henriksen +1-Wire,2013-02-11 01:57:00,
2013-02-10 21:02:00,21.1,18.1,30.31,NNE,22,0.0,0.0,88,0.00,n/a,n/a,-99.99,Henriksen +1-Wire,2013-02-11 02:02:00,
2013-02-10 21:07:00,20.8,18.1,30.30,NNE,20,0.0,0.0,88,0.00,n/a,n/a,-99.99,Henriksen +1-Wire,2013-02-11 02:07:00,
2013-02-10 21:12:00,21.2,18.5,30.30,NNW,327,0.0,0.0,89,0.00,n/a,n/a,-99.99,Henriksen +1-Wire,2013-02-11 02:12:00,
2013-02-10 21:18:00,21.6,18.7,30.30,North,4,0.0,0.0,88,0.00,n/a,n/a,-99.99,Henriksen +1-Wire,2013-02-11 02:18:00,
2013-02-10 21:23:00,21.4,18.5,30.30,NNW,342,0.0,0.0,88,0.00,n/a,n/a,-99.99,Henriksen +1-Wire,2013-02-11 02:23:00,
2013-02-10 21:28:00,21.1,18.1,30.30,North,356,0.0,0.0,88,0.00,n/a,n/a,-99.99,Henriksen +1-Wire,2013-02-11 02:28:00,
2013-02-10 21:33:00,20.8,17.5,30.30,NE,45,0.0,0.0,86,0.00,n/a,n/a,-99.99,Henriksen +1-Wire,2013-02-11 02:33:00,
2013-02-10 21:38:00,20.7,17.2,30.30,NW,321,0.0,0.0,86,0.00,n/a,n/a,-99.99,Henriksen +1-Wire,2013-02-11 02:38:00,
2013-02-10 21:43:00,21.1,17.7,30.30,West,267,0.0,0.0,86,0.00,n/a,n/a,-99.99,Henriksen +1-Wire,2013-02-11 02:43:00,
2013-02-10 21:49:00,20.9,17.5,30.30,West,269,0.0,0.0,86,0.00,n/a,n/a,-99.99,Henriksen +1-Wire,2013-02-11 02:49:00,
2013-02-10 21:54:00,20.9,17.5,30.30,West,267,0.0,0.0,86,0.00,n/a,n/a,-99.99,Henriksen +1-Wire,2013-02-11 02:54:00,
2013-02-10 21:59:00,20.8,17.3,30.30,West,268,0.0,1.0,86,0.00,n/a,n/a,-99.99,Henriksen +1-Wire,2013-02-11 02:59:00,
2013-02-10 22:04:00,21.1,17.5,30.31,West,268,0.0,1.0,86,0.00,n/a,n/a,-99.99,Henriksen +1-Wire,2013-02-11 03:04:00,
2013-02-10 22:09:00,20.8,17.3,30.31,West,269,0.0,0.8,86,0.00,n/a,n/a,-99.99,Henriksen +1-Wire,2013-02-11 03:09:00,
2013-02-10 22:14:00,20.6,17.3,30.30,West,266,0.0,0.0,87,0.00,n/a,n/a,-99.99,Henriksen +1-Wire,2013-02-11 03:14:00,
2013-02-10 22:19:00,20.7,17.7,30.30,West,268,0.0,0.0,87,0.00,n/a,n/a,-99.99,Henriksen +1-Wire,2013-02-11 03:19:00,
2013-02-10 22:24:00,21.0,18.3,30.30,West,266,0.0,0.0,89,0.00,n/a,n/a,-99.99,Henriksen +1-Wire,2013-02-11 03:24:00,
2013-02-10 22:30:00,20.6,18.3,30.31,West,269,0.0,0.0,90,0.00,n/a,n/a,-99.99,Henriksen +1-Wire,2013-02-11 03:30:00,
2013-02-10 22:36:00,20.7,18.3,30.31,West,269,0.0,0.0,90,0.00,n/a,n/a,-99.99,Henriksen +1-Wire,2013-02-11 03:36:00,
2013-02-10 22:41:00,21.0,18.3,30.31,West,260,0.0,0.0,89,0.00,n/a,n/a,-99.99,Henriksen +1-Wire,2013-02-11 03:41:00,
2013-02-10 22:46:00,21.1,18.3,30.31,West,269,0.0,0.0,88,0.00,n/a,n/a,-99.99,Henriksen +1-Wire,2013-02-11 03:46:00,
2013-02-10 22:51:00,21.3,18.4,30.31,West,261,0.0,0.0,88,0.00,n/a,n/a,-99.99,Henriksen +1-Wire,2013-02-11 03:51:00,
2013-02-10 22:56:00,21.3,18.6,30.31,West,269,0.0,0.0,89,0.00,n/a,n/a,-99.99,Henriksen +1-Wire,2013-02-11 03:56:00,
2013-02-10 23:01:00,21.3,18.8,30.31,West,259,0.0,0.0,90,0.00,n/a,n/a,-99.99,Henriksen +1-Wire,2013-02-11 04:01:00,
2013-02-10 23:06:00,21.2,19.1,30.31,West,268,0.0,0.0,91,0.00,n/a,n/a,-99.99,Henriksen +1-Wire,2013-02-11 04:06:00,
2013-02-10 23:11:00,20.9,18.8,30.31,West,261,0.0,0.0,91,0.00,n/a,n/a,-99.99,Henriksen +1-Wire,2013-02-11 04:11:00,
2013-02-10 23:16:00,20.0,18.0,30.31,West,269,0.0,0.0,91,0.00,n/a,n/a,-99.99,Henriksen +1-Wire,2013-02-11 04:16:00,
2013-02-10 23:21:00,19.4,17.6,30.31,West,261,0.0,0.0,92,0.00,n/a,n/a,-99.99,Henriksen +1-Wire,2013-02-11 04:21:00,
2013-02-10 23:27:00,19.3,17.6,30.31,West,268,0.0,0.0,93,0.00,n/a,n/a,-99.99,Henriksen +1-Wire,2013-02-11 04:27:00,
2013-02-10 23:32:00,19.4,17.6,30.31,West,265,0.0,0.0,92,0.00,n/a,n/a,-99.99,Henriksen +1-Wire,2013-02-11 04:32:00,
2013-02-10 23:37:00,19.1,17.3,30.30,West,268,0.0,0.0,92,0.00,n/a,n/a,-99.99,Henriksen +1-Wire,2013-02-11 04:37:00,
2013-02-10 23:42:00,19.0,17.2,30.30,West,265,0.0,0.0,92,0.00,n/a,n/a,-99.99,Henriksen +1-Wire,2013-02-11 04:42:00,
2013-02-10 23:47:00,19.1,17.4,30.30,WNW,282,0.0,0.8,93,0.00,n/a,n/a,-99.99,Henriksen +1-Wire,2013-02-11 04:47:00,
2013-02-10 23:52:00,19.0,17.3,30.30,North,4,0.0,0.8,93,0.00,n/a,n/a,-99.99,Henriksen +1-Wire,2013-02-11 04:52:00,
2013-02-10 23:57:00,18.8,17.1,30.31,North,350,0.0,0.0,92,0.00,n/a,n/a,-99.99,Henriksen +1-Wire,2013-02-11 04:57:00,